Terug naar catalogus

COSMOS 755

ActiefNavigatiePO
NORAD 8072·PAYLOAD·🇷🇺 Russia

Gelanceerd Aug 14, 1975 vanaf Plesetsk Cosmodrome

Loading…

Volgende Passages (komende 24 uur)

TLE

VersSource: Space-Track

Epoch: Sep 14, 2026, 06:29 UTC

1 08072U 75074A   26257.27052314  .00000065  00000-0  53477-4 0  9997
2 08072  82.9083  18.4744 0026545 256.2182 124.8800 13.74226967560747

Volg COSMOS 755 in realtime met AllMySat

Download on the App Store